sat.trackr.live / text

‹ back to catalog

STARLINK-30817

NORAD 58238 · 2023-171J

PAYLOAD ACTIVE UNKNOWN

§ Identity

Operator
Country
US
Launch date
2023-11-08
Launch site
AFETR
Launch vehicle
Mass (kg)
RCS (m²)

Purposes: comms

External: N2YO · Heavens-Above · Gunter

§ Orbital elements

Epoch: 2026-09-20T08:35:06.950976Z

Period
94.27 min
Inclination
43.0015°
Eccentricity
0.0001105
Mean motion
15.27572058 rev/d
Perigee alt
482.3 km
Apogee alt
483.8 km
Semi-major
6,861.2 km
B*
8.9741e-6
RAAN
266.0907°
Arg perigee
262.4354°
Mean anomaly
97.6372°
Rev number
15,950

§ Raw data

STARLINK-308171 58238U 23171J   26263.35771934 -.00000015  00000+0  89741-5 0  99982 58238  43.0015 266.0907 0001105 262.4354  97.6372 15.27572058159500

JSON: /api/v1/satellites/58238 · /tle

For live sub-satellite position, see the globe view (requires WebGL).

§ Visibility from observer

Set your observer location to see the next 7 days of passes ≥ 10°. The values pass through the URL so the page stays shareable.

No JS? Fill the form by hand. The geolocation button needs JavaScript.